Location: Newark
(48.5667°N, 7.8167°E)
Time: 15:28:23
(UTC+00:00)

CZ-6 R/B - Visible Passes

Search period start: 28 November 2021 00:00
Search period end: 08 December 2021 00:00
Orbit: 385 x 502 km, 97.7° (Epoch: 28 November)

Date Brightness Start Highest point End Pass type
(mag) Time Alt. Az. Time Alt. Az. Time Alt. Az.
28 Nov ? 16:17:43 10° NNE 16:20:54 61° ESE 16:23:56 10° S visible
29 Nov ? 17:13:54 10° NNW 17:16:32 24° WNW 17:19:05 10° WSW visible
30 Nov ? 16:36:43 10° N 16:39:53 73° WNW 16:42:56 10° SSW visible
01 Dec ? 17:33:27 10° NNW 17:35:21 15° WNW 17:37:13 10° W visible
02 Dec ? 16:55:48 10° N 16:58:46 39° WNW 17:01:38 10° SW visible
03 Dec ? 16:18:53 10° NNE 16:21:58 60° ESE 16:24:57 10° S visible
04 Dec ? 17:15:01 10° NNW 17:17:33 23° WNW 17:20:03 10° WSW visible
05 Dec ? 16:37:44 10° N 16:40:49 73° WNW 16:43:50 10° SSW visible
06 Dec ? 17:34:25 10° NNW 17:36:14 15° WNW 17:38:02 10° W visible
07 Dec ? 16:56:41 10° N 16:59:34 39° WNW 17:02:25 10° SW visible
